Regional Weather Roundup
Issued by NWS Upton, NY

Current Version | Previous Version | Graphics & Text | Print | Product List | Glossary Off
Versions: 1 2 3 4 5 6 7 8 9 10 11 12 13 14 15 16 17 18 19 20 21 22 23 24 25 26

000
ASUS41 KOKX 112008
RWROKX

REGIONAL WEATHER ROUNDUP
NATIONAL WEATHER SERVICE NEW YORK NY
300 PM EST MON DEC 11 2017

NOTE: "FAIR" INDICATES FEW OR NO CLOUDS BELOW 12,000 FEET WITH NO
SIGNIFICANT WEATHER AND/OR OBSTRUCTIONS TO VISIBILITY.

NYZ071-072-176-178-NJZ106-104-112100-
NEW YORK CITY METRO AREA

CITY           SKY/WX    TMP DP  RH WIND       PRES   REMARKS
Central Park   SUNNY     40  19  43 NW5       30.01R
Bronx Bot Gard   N/A     39  19  45 W3        30.00R
Bronx Lehman C   N/A     41  21  45 W3          N/A
LaGuardia APRT MOSUNNY   42  19  39 W10       29.99R
Queens College   N/A     41  21  45 NW9         N/A
Kennedy INTL   PTSUNNY   40  23  50 W9        30.01R WCI  34
Breezy Point     N/A     41 N/A N/A W7G13       N/A
Brooklyn Coll    N/A     41  21  45 W10         N/A
Staten Island    N/A     41  21  45 W7          N/A
Newark/Liberty PTSUNNY   42  23  46 W10       30.00R
Teterboro      PTSUNNY   41  21  44 W13       29.99R
$$

NYZ177-179-078>081-112100-
LONG ISLAND NEW YORK

CITY           SKY/WX    TMP DP  RH WIND       PRES   REMARKS
Jones Beach      N/A     39 N/A N/A W9          N/A  WCI  33
Wantagh          N/A     41  21  45 W8          N/A
Matinecock PT    N/A     41 N/A N/A W8          N/A
Farmingdale    SUNNY     41  21  44 NW8       29.99S
MacArthur/ISP  PTSUNNY   40  22  48 W7        29.99R
Shirley        MOSUNNY   41  24  51 NW8       29.99R
Mt Sinai Harb    N/A    N/A N/A N/A W3          N/A
Westhampton    SUNNY     40  22  48 W8        30.00R WCI  34
East Hampton   FAIR      39  24  54 W8        29.98S WCI  33
Southold         N/A     39  27  60 W6          N/A  WCI  35
Montauk          N/A     41  26  55 W7        29.99R
$$

NYZ052-065-067-112100-
HUDSON VALLEY

CITY           SKY/WX    TMP DP  RH WIND       PRES   REMARKS
White Plains   MOSUNNY   37  20  50 NW10      29.97R WCI  30
Larchmont Harb   N/A     39 N/A N/A W7          N/A  WCI  34
Croton On Huds   N/A     39 N/A N/A W12         N/A  WCI  32
Somers           N/A     36  21  55 NW2         N/A
Brewster         N/A     36  19  51 W7          N/A  WCI  30
Newburgh       PTSUNNY   36  23  60 NW8       29.98R WCI  29
Montgomery     CLOUDY    37  20  50 W6        29.97R WCI  32
Otisville        N/A     34  19  55 W7          N/A  WCI  28
Warwick          N/A     37  19  48 NW8         N/A  WCI  31
Suffern          N/A     37  21  52 NW5         N/A  WCI  34
Poughkeepsie   PTSUNNY   36  18  48 W6        29.98R WCI  31
Albany         CLOUDY    32  17  54 NW14      29.99R WCI  22
$$

NJZ001-105-106-008-010-013-015-019>022-104-112100-
NEW JERSEY

CITY           SKY/WX    TMP DP  RH WIND       PRES   REMARKS
Newark/Liberty PTSUNNY   42  23  46 W10       30.00R
Teterboro      PTSUNNY   41  21  44 W13       29.99R
Caldwell       PTSUNNY   40  19  43 W7        30.00R
Somerville     MOSUNNY   39  22  50 NW7       29.99R WCI  34
Linden         FAIR      40  22  47 NW9       30.01R WCI  34
Perth Amboy      N/A     39 N/A N/A W14         N/A  WCI  31
Sussex         PTSUNNY   39  18  42 VRB6      29.97S WCI  35
Andover        NOT AVBL
Trenton        SUNNY     40  21  46 NW8       30.01R WCI  34
Millville      CLOUDY    44  26  49 NW8       30.00F
Atlantic City  MOSUNNY   43  25  49 NW7       30.00F
Wrightstown    PTSUNNY   39  24  53 W8        29.97F WCI  34
Toms River     SUNNY     40  23  50 W8        30.01F WCI  34
Belmar         SUNNY     40  21  46 W8        30.00F WCI  34
$$

PAZ047>061-062-071-112100-
EASTERN PENNSYLVANIA

CITY           SKY/WX    TMP DP  RH WIND       PRES   REMARKS
Philadelphia   PTSUNNY   41  21  44 W7G20     30.01F
Allentown      CLOUDY    38  20  48 W8        30.00R WCI  32
Scranton       CLOUDY    34  20  56 SW9       29.97R WCI  27
$$

CTZ002-004>006-009-010-012-RIZ004-006-007-MAZ004-011-015-112100-
SOUTHERN NEW ENGLAND
 IN CT

CITY           SKY/WX    TMP DP  RH WIND       PRES   REMARKS
Bradley INTL   PTSUNNY   38  19  46 W8        29.97R WCI  32
Hartford       MOSUNNY   40  19  43 W7        29.98R
Danbury        MOSUNNY   37  18  46 W13       29.98R WCI  29
Wtrbury/Oxford MOSUNNY   36  18  48 VRB7      29.96R WCI  30
Norwalk Harbor   N/A     37 N/A N/A NW8         N/A  WCI  31
Bridgeport     MOSUNNY   41  20  43 W6        29.98R
Meriden        SUNNY     38  19  46 W7        29.97R WCI  33
New Haven      MOSUNNY   41  20  43 NW7       29.98R
Chester        FAIR      41  18  38 W7G13     29.95S
Groton         SUNNY     41  21  44 NW9       29.97R
Wilimantic     MOSUNNY   39  21  48 W8        29.97R WCI  33

 IN RI

CITY           SKY/WX    TMP DP  RH WIND       PRES   REMARKS
Providence     PTSUNNY   40  23  50 W3        29.98R
Block Island   SUNNY     40  25  55 W6        29.97R
Westerly       SUNNY     41  22  46 VRB3      29.97R
 IN MA

CITY           SKY/WX    TMP DP  RH WIND       PRES   REMARKS
Boston         PTCLDY    38  20  48 W10       29.97R WCI  31
Worcester      MOSUNNY   32  15  49 W8        29.92R WCI  25
Westfield      CLOUDY    36  18  48 NW10      29.96R WCI  28
Provincetown   CLEAR     39  24  55 NW10      29.97R WCI  32
Nantucket      PTCLDY    39  28  64 W10       29.97R WCI  32
$$

ANZ330-335-338-340-345-350-353-355-112100-
COASTAL MARINE OBSERVATIONS


STATION/POSITION TIME  SKY/WX   TEMP    WIND        PRES    VSBY  WAVE
                                AIR SEA DIR/SP/G                  HT/PER
                 (UTC)          (F)     (DEG/KT/KT) (MB)    (MI)  (FT/S)
NY HARB ENTRANCE 1950            41 52  280/ 14/ 17 1015.6          2/ 9
20 S FIRE ISLAND 1950            41 53  300/ 14/ 17 1015.9          3/ 4
GREAT SOUTH BAY  1930            40 45  250/  8/ 10   N/A
HUDSON CANYON    1850            43 56  280/ 12/ 16 1015.8          5/ 5
KINGS POINT      1924            41 46  350/  4/  7 1016.2
EXECUTION ROCKS  1930            48     270/  8/ 14   N/A
WESTERN LI SOUND 1849            41     300/  8/ 12   N/A           0
CENTRAL LI SOUND NOT AVBL
ROBBINS REEF     1948            41     280/ 10/ 13 1016.3
$$


>>>>>>>>>>>>>>>>>>>>>>>>>>>> KEY <<<<<<<<<<<<<<<<<<<<<<<<<<<
>                                                          <
>     SKY/WX - Sky Condition/Present Weather               <
>     TMP    - Temperature in Fahrenheit                   <
>     DP     - Dew Point in Fahrenheit                     <
>     RH     - Relative Humidity in Percent                <
>     WIND   - Direction (from) and Speed in MPH           <
>     PRES   - Mean Sea Level Pressure (inches of Hg)      <
>     WCI    - Wind Chill Index                            <
>     VSB    - VISIBILITY IN MILES                         <
>     HX     - HEAT INDEX                                  <
>     TC     - TEMPERATURE IN CELSIUS                      <
>     VRB    - VARIABLE WIND DIRECTION                     <
>                                                          <
>>>>>>>>>>>>>>>>>>>>>>>>>>>> KEY <<<<<<<<<<<<<<<<<<<<<<<<<<<




USA.gov is the U.S. government's official web portal to all federal, state and local government web resources and services.